Tracking 29018 objects as of 15-Jun-2024
HD Live streaming from Space Station
objects crossing your sky now

METEOR 2-14

Track METEOR 2-14 now!
10-day predictions
METEOR 2-14 is classified as:


NORAD ID: 16735
Int'l Code: 1986-039A
Perigee: 940.0 km
Apogee: 963.6 km
Inclination: 82.5 °
Period: 103.9 minutes
Semi major axis: 7322 km
RCS: 4.6711 m2 (large)
Launch date: May 27, 1986
Source: Commonwealth of Independent States (former USSR) (CIS)
Launch site: PLESETSK MISSILE AND SPACE COMPLEX (PKMTR)
Your satellite tracking list
Your tracking list is empty




NASA's NSSDC Master Catalog

Two Line Element Set (TLE):
1 16735U 86039A   24166.45440938  .00000084  00000-0  60113-4 0  9991
2 16735  82.5347 148.0376 0016080 102.8146   9.5713 13.85433436923244
Source of the keplerian elements: AFSPC